• Processing (Info)

  • MPEC 2003-Y76 : 2003 YN107

    The following Minor Planet Electronic Circular may be linked-to from your own Web pages, but must not otherwise be redistributed electronically.

    A form allowing access to any MPEC is at the bottom of this page.


    Read MPEC 2003-Y75 Read MPEC 2003-Y77


    M.P.E.C. 2003-Y76                                Issued 2003 Dec. 26, 16:30 UT
    
         The Minor Planet Electronic Circulars contain information on unusual
             minor planets and routine data on comets.  They are published
       on behalf of Commission 20 of the International Astronomical Union by the
              Minor Planet Center, Smithsonian Astrophysical Observatory,
                              Cambridge, MA 02138, U.S.A.
    
             Supported in part by the Steven and Michele Kirsch Foundation
                 Prepared using the Tamkin Foundation Computer Network
    
                                  MPC@CFA.HARVARD.EDU
              URL http://cfa-www.harvard.edu/iau/mpc.html  ISSN 1523-6714
    
                                      2003 YN107
    
    Observations:
         K03YA7N* C2003 12 20.39392 11 04 54.44 +10 24 31.0          18.8   EY076704
         K03YA7N  C2003 12 20.40697 11 04 43.57 +10 21 10.6          19.1   EY076704
         K03YA7N  C2003 12 20.42040 11 04 32.22 +10 17 44.7          19.6   EY076704
         K03YA7N  C2003 12 20.43346 11 04 20.98 +10 14 23.1          19.1   EY076704
         K03YA7N  C2003 12 20.44672 11 04 09.61 +10 10 58.3          18.7   EY076704
         K03YA7N  C2003 12 21.31927 10 54 35.03 +06 19 46.8          19.2 R EY076649
         K03YA7N  C2003 12 21.32129 10 54 33.39 +06 19 15.2          19.5 R EY076649
         K03YA7N  C2003 12 21.32531 10 54 30.20 +06 18 10.8          19.4 R EY076649
         K03YA7N  C2003 12 24.33049 10 20 59.94 -06 49 21.1          19.5 R EY076649
         K03YA7N  C2003 12 24.33179 10 20 58.94 -06 49 40.2          19.5 R EY076649
         K03YA7N  C2003 12 24.33309 10 20 57.94 -06 50 00.0          19.1 R EY076649
         K03YA7N  C2003 12 24.33437 10 20 56.80 -06 50 20.8          19.7 R EY076649
         K03YA7N  C2003 12 25.47535 10 08 11.99 -11 28 56.5          19.2 R EY076926
         K03YA7N  C2003 12 25.47575 10 08 11.68 -11 29 01.8          19.3 R EY076926
         K03YA7N 1C2003 12 25.71764 10 05 42.156-12 16 27.13         20.0 R EY076413
         K03YA7N 1C2003 12 25.72145 10 05 38.907-12 17 21.36         19.8 R EY076413
    
    Observer details:
    413 Siding Spring.  Observer R. H. McNaught.  1.0-m f/8 reflector + CCD.
    649 Powell Observatory, Louisburg.  Observers R. Fredrick, R. Trentman,
        S. Granger.  0.75-m Newtonian + CCD.
    704 Lincoln Laboratory ETS, New Mexico.  Observers M. Blythe, F. Shelly,
        M. Bezpalko, R. Huber, L. Manguso, D. Torres, R. Kracke, M. McCleary,
        H. Stange, A. Milner.  Measurers J. Stuart, R. Sayer, J. Evans, J. Kommers.
        1.0-m f/2.15 reflector + CCD.
    926 Tenagra II Observatory.  Observers P. R. Holvorcem, M. Schwartz.  0.81-m
        f/7 Ritchey-Chretien + CCD.
    
    Orbital elements:
    2003 YN107
    Epoch 2003 Dec. 27.0 TT = JDT 2453000.5                 MPC
    M  71.65038              (2000.0)            P               Q
    n   0.98971571     Peri.  111.60696     +0.92915744     -0.36169407
    a   0.9972309      Node   269.66355     +0.30457924     +0.86617321
    e   0.0235169      Incl.    4.38434     +0.20951836     +0.34484977
    P   1.00           H   26.7           G   0.15           U   5
    Residuals in seconds of arc
    031220 704  0.5+  0.4+    031221 649  0.4-  0.8+    031225 926  0.3+  0.1+
    031220 704  0.6+  0.3-    031221 649  0.5-  0.6-    031225 926  0.7+  0.5+
    031220 704  0.3+  0.0     031224 649  0.5-  0.6-    031225 413  0.0   0.2+
    031220 704  1.0-  0.4-    031224 649  0.3+  0.2+    031225 413  0.2-  0.2-
    031220 704  0.2-  0.4-    031224 649  1.1+  0.3+
    031221 649  0.3+  0.8+    031224 649  0.4-  0.9-
    
    Ephemeris:
    2003 YN107               a,e,i = 1.00, 0.02, 4                   q = 0.9738
    Date    TT    R. A. (2000) Decl.     Delta      r     Elong.  Phase     V
    2003 12 27    09 52.00   -17 05.1    0.016    0.990   114.4    64.7    20.0
    2004 01 01    09 03.25   -31 08.7    0.020    0.992   116.2    62.8    20.4
    2004 01 06    08 22.93   -39 11.5    0.025    0.994   115.6    63.1    20.9
    2004 01 11    07 50.89   -43 34.7    0.030    0.996   114.2    64.2    21.4
    2004 01 16    07 25.74   -45 52.0    0.036    0.998   112.8    65.3    21.8
    2004 01 21    07 06.26   -46 52.4    0.041    1.000   111.5    66.3    22.1
    2004 01 26    06 51.77   -47 03.9    0.047    1.002   110.3    67.1    22.4
    
    Kyle E. Smalley              (C) Copyright 2003 MPC           M.P.E.C. 2003-Y76
    

    Read MPEC 2003-Y75 Read MPEC 2003-Y77


    MPEC number:

    Enter an MPEC number in one of the following forms:

    • 1997-B01 (the full form)
    • J97B01 (the packed version of the full form)
    • B01 (the abbreviated form)